Skip Page Navigation
NASA JPL Caltech
NASA Logo - Jet Propulsion Laboratory + View the NASA Portal
+ Center for Near-Earth Object Studies
JPL Home Earth Solar System Stars & Galaxies Technology
JPL Solar System Dynamics
BODIES ORBITS EPHEMERIDES TOOLS PHYSICAL DATA DISCOVERY FAQ SITE MAP
JPL Small-Body Database Browser
Search: [ help ]  
434001 (2000 SQ296)
Classification: Main-belt Asteroid          SPK-ID: 2434001
Ephemeris | Orbit Diagram | Orbital Elements | Mission Design | Physical Parameters | Discovery Circumstances | Close-Approach Data ]

[ show orbit diagram ]
Orbital Elements at Epoch 2459000.5 (2020-May-31.0) TDB
Reference: JPL 11 (heliocentric ecliptic J2000)
 Element Value Uncertainty (1-sigma)   Units 
e .1546296076915664 7.2798e-08  
a 3.131728994748157 3.9239e-08 au
q 2.647470968893946 2.2521e-07 au
i 11.262175677 7.8254e-06 deg
node 218.5499036596067 3.1695e-05 deg
peri 148.7893595768032 3.9328e-05 deg
M 194.6486030281862 2.6763e-05 deg
tp 2459930.279687895355
(2022-Dec-16.77968790)
0.00016222 TDB
period 2024.299121581567
5.54
3.8045e-05
1.042e-07
d
yr
n .1778393302461818 3.3424e-09 deg/d
Q 3.615987020602368 4.5307e-08 au
  Orbit Determination Parameters
   # obs. used (total)      244  
   data-arc span      7157 days (19.59 yr)  
   first obs. used      2000-09-21  
   last obs. used      2020-04-26  
   planetary ephem.      DE431  
   SB-pert. ephem.      SB431-N16  
   condition code      0  
   norm. resid. RMS      .58551  
   source      ORB  
   producer      Otto Matic  
   solution date      2020-May-22 03:23:51  

Additional Information
 Earth MOID = 1.6549 au 
 Jupiter MOID = 1.89502 au 
 T_jup = 3.165 
[ show covariance matrix ]

Ephemeris | Orbit Diagram | Orbital Elements | Mission Design | Physical Parameters | Discovery Circumstances | Close-Approach Data ]

Physical Parameter Table
Parameter Symbol Value Units Sigma Reference Notes
absolute magnitude H 15.5   n/a MPO437679  

434001 (2000 SQ296)          Discovered 2000-Sep-28 by LINEAR at Socorro
Reference: Last Updated: 2015-06-04

[ show close-approach data ]
Alternate Designations
 2000 SQ296 = 2006 TB52 
Ephemeris | Orbit Diagram | Orbital Elements | Mission Design | Physical Parameters | Discovery Circumstances | Close-Approach Data ]
ABOUT SSD CREDITS/AWARDS PRIVACY/COPYRIGHT GLOSSARY LINKS
FirstGov 2020-Jul-10 23:52 UT
(server date/time)  
NASA Home Page
Site Manager:   Ryan S. Park
Webmaster  Alan B. Chamberlin